period_start,C,m1,H,J0,J1,J2,J3,J4,J5,JA,JB,JC,JD,JJ,JK,JN,#
2015-02-02 00:01:04,0.13,2.28,0.00,14.18,18.77,22.33,5.09,28.88,1028.08,2063.00,2641.38,2734.51,2950.45,350.27,362.81,9.44,0000 0000 0000 0000 000000
2015-02-02 00:06:06,0.13,2.28,0.00,14.23,18.79,22.35,5.01,29.13,1028.07,2063.00,2640.06,2733.56,2949.37,349.62,362.21,9.47,0000 0000 0000 0000 000000
2015-02-02 00:11:07,0.15,2.29,0.00,14.24,18.81,22.37,5.06,28.98,1027.99,2062.99,2638.68,2732.48,2948.18,349.74,362.07,9.50,0000 0000 0000 0000 000000
2015-02-02 00:16:09,0.15,2.29,0.00,14.26,18.84,22.41,4.95,28.83,1027.87,2062.97,2637.30,2731.39,2946.88,349.44,361.87,9.53,0000 0000 0000 0000 000000
2015-02-02 00:21:11,0.17,2.30,0.00,14.28,18.87,22.45,5.00,29.20,1027.77,2062.98,2635.62,2730.24,2945.66,349.85,362.09,9.56,0000 0000 0000 0000 000000
2015-02-02 00:26:13,0.14,2.30,0.00,14.27,18.89,22.48,4.98,29.20,1027.51,2062.91,2634.12,2729.01,2944.41,350.51,362.56,9.59,0000 0000 0000 0000 000000
2015-02-02 00:31:14,0.11,2.31,0.00,14.21,18.92,22.46,4.99,29.47,1027.23,2062.65,2632.75,2727.85,2943.09,350.33,362.44,9.62,0000 0000 0000 0000 000000
2015-02-02 00:36:16,0.15,2.31,0.00,14.16,18.95,22.46,4.97,29.66,1026.80,2062.17,2631.04,2726.38,2941.58,349.62,361.61,9.65,0000 0000 0000 0000 000000
2015-02-02 00:41:17,0.19,2.32,0.00,14.18,18.98,22.41,4.94,29.71,1026.69,2062.03,2629.14,2724.71,2939.68,349.46,361.43,9.68,0000 0000 0000 0000 000000
2015-02-02 00:46:19,0.18,2.32,0.00,14.18,19.00,22.35,5.17,29.63,1026.72,2062.02,2627.63,2723.46,2938.39,350.59,362.52,9.71,0000 0000 0000 0000 000000
2015-02-02 00:51:21,0.14,2.33,0.00,14.12,19.02,22.22,4.99,29.57,1026.71,2062.00,2626.23,2722.34,2937.09,349.60,361.55,9.74,0000 0000 0000 0000 000000
2015-02-02 00:56:22,0.16,2.33,0.00,14.16,19.04,22.12,5.01,29.55,1026.72,2062.00,2624.78,2721.22,2935.89,349.88,361.88,9.77,0000 0000 0000 0000 000000
2015-02-02 01:01:23,0.16,2.34,0.00,14.09,19.07,22.05,5.04,29.77,1026.44,2062.00,2623.29,2720.04,2934.59,350.27,362.16,9.80,0000 0000 0000 0000 000000
2015-02-02 01:06:25,0.18,2.34,0.00,14.02,19.08,22.10,5.05,29.62,1026.39,2061.99,2622.01,2718.76,2933.32,350.65,362.53,9.82,0000 0000 0000 0000 000000
2015-02-02 01:11:26,0.19,2.35,0.00,14.06,19.09,22.00,4.99,29.91,1026.33,2061.99,2620.38,2717.46,2931.84,350.10,361.98,9.85,0000 0000 0000 0000 000000
2015-02-02 01:16:27,0.17,2.35,0.00,14.04,19.09,21.94,4.97,29.96,1026.11,2061.99,2618.77,2716.20,2930.46,350.18,362.01,9.88,0000 0000 0000 0000 000000
2015-02-02 01:21:28,0.19,2.36,0.00,13.96,19.10,21.94,4.99,29.88,1025.93,2061.97,2617.16,2714.78,2928.93,349.78,361.69,9.91,0000 0000 0000 0000 000000
2015-02-02 01:26:29,0.21,2.36,0.00,13.98,19.10,21.95,5.04,30.10,1025.90,2061.98,2615.34,2713.26,2927.26,350.33,361.97,9.94,0000 0000 0000 0000 000000
2015-02-02 01:31:31,0.19,2.37,0.00,13.97,19.10,21.94,5.05,30.13,1025.90,2061.98,2613.74,2711.88,2925.69,350.38,362.26,9.97,0000 0000 0000 0000 000000
2015-02-02 01:36:32,0.22,2.37,0.00,13.89,19.09,21.99,5.01,30.03,1025.91,2061.98,2611.87,2710.47,2924.08,350.34,362.40,10.00,0000 0000 0000 0000 000000
2015-02-02 01:41:33,0.19,2.38,0.00,13.81,19.09,21.87,5.00,30.29,1025.90,2061.96,2610.28,2708.91,2922.55,349.91,362.01,10.03,0000 0000 0000 0000 000000
2015-02-02 01:46:35,0.20,2.39,0.00,13.71,19.07,21.77,4.99,30.27,1025.90,2061.98,2608.64,2707.61,2920.98,349.70,361.78,10.06,0000 0000 0000 0000 000000
2015-02-02 01:51:36,0.20,2.39,0.00,13.70,19.06,21.72,5.03,30.35,1025.91,2061.99,2607.05,2706.16,2919.42,349.60,362.00,10.09,0000 0000 0000 0000 000000
2015-02-02 01:56:37,0.21,2.40,0.00,13.65,19.04,21.77,5.08,30.13,1025.93,2061.99,2605.30,2704.52,2917.66,349.96,362.30,10.12,0000 0000 0000 0000 000000
2015-02-02 02:01:38,0.16,2.40,0.00,13.58,19.02,21.62,5.11,30.23,1026.09,2061.99,2603.85,2703.40,2916.36,350.85,363.35,10.15,0000 0000 0000 0000 000000
2015-02-02 02:06:39,0.16,2.41,0.00,13.44,18.99,21.50,5.05,29.98,1026.30,2061.99,2602.43,2702.27,2915.04,349.87,362.54,10.18,0000 0000 0000 0000 000000
2015-02-02 02:11:41,0.16,2.41,0.00,13.35,18.97,21.41,5.10,30.06,1026.19,2061.99,2600.92,2701.03,2913.68,350.00,362.95,10.21,0000 0000 0000 0000 000000
2015-02-02 02:16:42,0.17,2.42,0.00,13.36,18.94,21.42,5.02,30.26,1026.00,2062.01,2599.55,2699.91,2912.48,349.67,362.30,10.23,0000 0000 0000 0000 000000
2015-02-02 02:21:43,0.14,2.42,0.00,13.31,18.91,21.39,4.98,29.88,1026.01,2062.02,2598.20,2698.85,2911.21,349.01,361.74,10.26,0000 0000 0000 0000 000000
2015-02-02 02:26:45,0.16,2.43,0.00,13.23,18.88,21.23,5.05,30.10,1026.03,2062.17,2596.97,2697.96,2910.12,349.81,362.49,10.29,0000 0000 0000 0000 000000
2015-02-02 02:31:46,0.19,2.43,0.00,13.13,18.85,21.21,4.96,29.97,1025.93,2062.40,2595.71,2696.94,2909.04,349.63,362.83,10.32,0000 0000 0000 0000 000000
2015-02-02 02:36:47,0.25,2.44,0.00,13.08,18.81,21.15,5.01,30.13,1026.14,2062.73,2594.18,2695.69,2907.66,350.32,363.46,10.35,0000 0000 0000 0000 000000
2015-02-02 02:41:49,0.21,2.45,0.00,12.99,18.77,21.07,5.07,30.20,1026.12,2062.92,2592.49,2694.44,2906.27,349.84,362.94,10.38,0000 0000 0000 0000 000000
2015-02-02 02:46:50,0.15,2.45,0.00,12.85,18.73,20.90,5.01,30.10,1026.06,2062.99,2591.20,2693.26,2904.99,349.60,362.87,10.41,0000 0000 0000 0000 000000
2015-02-02 02:51:52,0.15,2.46,0.00,12.80,18.70,20.81,5.05,30.02,1026.07,2062.99,2589.83,2692.31,2903.84,349.88,363.32,10.44,0000 0000 0000 0000 000000
2015-02-02 02:56:53,0.14,2.46,0.00,12.81,18.65,20.77,5.03,30.19,1026.12,2063.00,2588.65,2691.42,2902.76,349.76,363.19,10.47,0000 0000 0000 0000 000000
2015-02-02 03:01:54,0.14,2.46,0.00,12.75,18.61,20.71,5.02,29.92,1026.35,2063.04,2587.37,2690.50,2901.79,349.66,363.21,10.50,0000 0000 0000 0000 000000
2015-02-02 03:06:55,0.15,2.47,0.00,12.67,18.57,20.66,5.06,29.93,1026.35,2063.08,2586.06,2689.46,2900.70,349.92,363.48,10.53,0000 0000 0000 0000 000000
2015-02-02 03:11:56,0.24,2.47,0.00,12.69,18.53,20.65,5.04,30.01,1026.38,2063.47,2584.75,2688.56,2899.68,350.24,363.94,10.56,0000 0000 0000 0000 000000
2015-02-02 03:16:58,0.19,2.48,0.00,12.67,18.49,20.62,5.09,29.86,1026.39,2063.88,2583.49,2687.65,2898.67,350.17,363.93,10.59,0000 0000 0000 0000 000000
2015-02-02 03:21:59,0.17,2.49,0.00,12.52,18.44,20.54,5.02,30.03,1026.39,2063.98,2581.98,2686.60,2897.42,349.91,363.74,10.62,0000 0000 0000 0000 000000
2015-02-02 03:27:01,0.15,2.49,0.00,12.44,18.40,20.41,5.06,30.08,1026.36,2063.99,2580.62,2685.65,2896.46,349.50,363.48,10.64,0000 0000 0000 0000 000000
2015-02-02 03:32:02,0.14,2.49,0.00,12.34,18.35,20.34,5.03,30.09,1026.38,2064.01,2579.39,2684.62,2895.30,349.89,364.08,10.67,0000 0000 0000 0000 000000
2015-02-02 03:37:04,0.14,2.50,0.00,12.29,18.31,20.27,5.11,30.11,1026.37,2064.04,2577.98,2683.60,2894.16,350.16,364.25,10.70,0000 0000 0000 0000 000000
2015-02-02 03:42:05,0.19,2.50,0.00,12.34,18.26,20.22,4.96,29.90,1026.38,2064.18,2576.66,2682.62,2893.12,349.84,364.11,10.73,0000 0000 0000 0000 000000
2015-02-02 03:47:06,0.21,2.51,0.00,12.25,18.21,20.18,5.06,29.94,1026.40,2064.62,2575.47,2681.77,2892.17,349.88,363.92,10.76,0000 0000 0000 0000 000000
2015-02-02 03:52:08,0.14,2.52,0.00,12.18,18.17,20.13,5.11,29.83,1026.40,2064.97,2574.35,2680.93,2891.24,350.03,364.54,10.79,0000 0000 0000 0000 000000
2015-02-02 03:57:09,0.18,2.52,0.00,12.22,18.13,20.10,4.96,30.02,1026.42,2064.99,2572.85,2679.77,2890.09,349.65,363.93,10.82,0000 0000 0000 0000 000000
2015-02-02 04:02:10,0.12,2.53,0.00,12.25,18.08,20.07,4.98,29.82,1026.41,2064.99,2571.55,2678.86,2888.98,349.75,364.11,10.85,0000 0000 0000 0000 000000
2015-02-02 04:07:11,0.18,2.53,0.00,12.23,18.04,20.09,5.11,30.05,1026.39,2065.03,2570.20,2677.67,2887.81,349.95,364.13,10.88,0000 0000 0000 0000 000000
2015-02-02 04:12:12,0.17,2.54,0.00,12.14,18.00,20.04,5.06,30.23,1026.39,2065.14,2568.83,2676.70,2886.68,350.21,364.63,10.91,0000 0000 0000 0000 000000
2015-02-02 04:17:13,0.28,2.54,0.00,12.14,17.96,20.03,5.07,30.13,1026.38,2065.68,2567.45,2675.49,2885.47,349.75,364.13,10.94,0000 0000 0000 0000 000000
2015-02-02 04:22:15,0.14,2.55,0.00,12.12,17.92,19.98,5.12,30.18,1026.38,2065.95,2566.18,2674.68,2884.36,350.36,364.77,10.97,0000 0000 0000 0000 000000
2015-02-02 04:27:16,0.19,2.55,0.00,12.06,17.88,19.95,5.08,29.97,1026.38,2065.98,2564.73,2673.34,2883.05,349.88,364.30,11.00,0000 0000 0000 0000 000000
2015-02-02 04:32:17,0.14,2.56,0.00,12.06,17.84,19.95,5.02,29.95,1026.42,2065.99,2563.49,2672.44,2882.00,349.41,364.04,11.03,0000 0000 0000 0000 000000
2015-02-02 04:37:18,0.13,2.56,0.00,12.00,17.81,19.98,5.06,29.87,1026.46,2066.00,2562.24,2671.53,2880.96,349.88,364.47,11.05,0000 0000 0000 0000 000000
2015-02-02 04:42:20,0.17,2.57,0.00,12.06,17.77,19.96,5.11,30.04,1026.43,2066.03,2560.80,2670.26,2879.77,350.35,364.87,11.08,0000 0000 0000 0000 000000
2015-02-02 04:47:21,0.13,2.57,0.00,12.00,17.73,19.94,5.04,29.74,1026.42,2066.07,2559.57,2669.43,2878.94,350.35,364.85,11.11,0000 0000 0000 0000 000000
2015-02-02 04:52:22,0.20,2.58,0.00,11.99,17.71,19.97,4.99,29.90,1026.39,2066.28,2558.32,2668.36,2877.87,349.47,364.16,11.14,0000 0000 0000 0000 000000
2015-02-02 04:57:23,0.21,2.58,0.00,12.05,17.68,20.01,5.01,29.88,1026.38,2066.74,2557.05,2667.46,2876.80,350.06,364.56,11.17,0000 0000 0000 0000 000000
2015-02-02 05:02:25,0.17,2.59,0.00,12.09,17.65,20.02,5.05,29.81,1026.38,2066.95,2555.79,2666.60,2875.80,350.17,364.88,11.20,0000 0000 0000 0000 000000
2015-02-02 05:07:26,0.16,2.59,0.00,12.08,17.62,20.02,5.04,30.01,1026.39,2066.99,2554.41,2665.57,2874.66,349.58,363.93,11.23,0000 0000 0000 0000 000000
2015-02-02 05:12:27,0.14,2.60,0.00,12.05,17.59,19.99,5.01,29.92,1026.38,2066.99,2553.07,2664.56,2873.54,349.66,364.22,11.26,0000 0000 0000 0000 000000
2015-02-02 05:17:28,0.16,2.60,0.00,12.11,17.57,20.01,5.06,30.02,1026.28,2066.99,2551.89,2663.24,2872.46,350.26,364.64,11.29,0000 0000 0000 0000 000000
2015-02-02 05:22:30,0.15,2.61,0.00,12.03,17.54,19.96,5.02,30.00,1026.22,2067.01,2550.58,2662.34,2871.55,349.87,364.25,11.32,0000 0000 0000 0000 000000
2015-02-02 05:27:31,0.16,2.61,0.00,12.02,17.52,19.97,5.07,29.96,1026.33,2067.06,2549.16,2661.25,2870.29,350.48,364.87,11.35,0000 0000 0000 0000 000000
2015-02-02 05:32:32,0.19,2.62,0.00,11.97,17.50,19.87,5.02,29.98,1026.29,2067.31,2547.85,2660.36,2869.32,350.34,365.02,11.38,0000 0000 0000 0000 000000
2015-02-02 05:37:33,0.18,2.62,0.00,11.92,17.48,19.92,5.08,29.96,1026.33,2067.50,2546.61,2659.40,2868.12,350.63,365.33,11.41,0000 0000 0000 0000 000000
2015-02-02 05:42:35,0.19,2.63,0.00,11.94,17.45,19.86,5.02,29.96,1026.18,2067.70,2545.05,2658.20,2866.99,349.96,364.53,11.44,0000 0000 0000 0000 000000
2015-02-02 05:47:36,0.20,2.64,0.00,11.99,17.43,19.89,5.06,29.97,1026.34,2067.95,2543.70,2657.27,2865.82,350.14,364.06,11.47,0000 0000 0000 0000 000000
2015-02-02 05:52:37,0.15,2.64,0.00,11.91,17.42,19.86,5.05,30.12,1026.23,2067.96,2542.37,2656.23,2864.70,349.78,364.42,11.49,0000 0000 0000 0000 000000
2015-02-02 05:57:38,0.16,2.64,0.00,11.92,17.39,19.81,5.02,30.02,1026.14,2067.97,2540.93,2655.17,2863.59,349.93,364.51,11.52,0000 0000 0000 0000 000000
2015-02-02 06:02:40,0.16,2.65,0.00,11.92,17.37,19.80,5.05,30.10,1026.05,2067.99,2539.58,2654.16,2862.48,349.67,364.09,11.55,0000 0000 0000 0000 000000
2015-02-02 06:07:42,0.14,2.65,0.00,11.88,17.35,19.79,5.06,29.98,1026.30,2067.99,2538.12,2653.09,2861.40,350.35,364.67,11.58,0000 0000 0000 0000 000000
2015-02-02 06:12:43,0.15,2.66,0.00,11.88,17.33,19.73,4.99,29.84,1026.38,2068.00,2536.88,2652.06,2860.21,349.82,364.22,11.61,0000 0000 0000 0000 000000
2015-02-02 06:17:44,0.19,2.66,0.00,11.82,17.32,19.70,5.03,29.69,1026.38,2068.00,2535.52,2650.90,2858.93,349.73,364.61,11.64,0000 0000 0000 0000 000000
2015-02-02 06:22:45,0.17,2.67,0.00,11.88,17.29,19.69,5.03,29.93,1026.37,2068.01,2533.93,2649.75,2857.67,349.59,364.04,11.67,0000 0000 0000 0000 000000
2015-02-02 06:27:46,0.19,2.67,0.00,11.85,17.28,19.72,5.06,30.06,1026.03,2068.02,2532.42,2648.60,2856.44,349.43,364.05,11.70,0000 0000 0000 0000 000000
2015-02-02 06:32:47,0.14,2.68,0.00,11.80,17.26,19.70,5.06,29.88,1026.22,2068.09,2531.22,2647.69,2855.39,349.90,364.50,11.73,0000 0000 0000 0000 000000
2015-02-02 06:37:48,0.18,2.68,0.00,11.73,17.24,19.67,5.03,29.99,1025.91,2068.09,2529.67,2646.53,2854.14,349.81,364.53,11.76,0000 0000 0000 0000 000000
2015-02-02 06:42:50,0.18,2.69,0.00,11.77,17.22,19.67,5.02,29.93,1026.07,2068.10,2528.18,2645.41,2852.83,349.48,364.30,11.79,0000 0000 0000 0000 000000
2015-02-02 06:47:51,0.20,2.69,0.00,11.77,17.20,19.64,5.06,29.84,1025.94,2068.33,2526.70,2644.43,2851.68,350.15,364.54,11.82,0000 0000 0000 0000 000000
2015-02-02 06:52:52,0.24,2.70,0.00,11.74,17.19,19.63,5.07,29.97,1025.94,2068.70,2525.32,2643.31,2850.49,350.29,364.93,11.85,0000 0000 0000 0000 000000
2015-02-02 06:57:54,0.16,2.71,0.00,11.72,17.17,19.62,5.13,29.88,1025.93,2068.95,2523.97,2642.45,2849.35,350.41,365.16,11.88,0000 0000 0000 0000 000000
2015-02-02 07:02:55,0.15,2.71,0.00,11.66,17.15,19.62,5.04,29.90,1025.91,2068.96,2522.64,2641.63,2848.37,349.72,364.56,11.90,0000 0000 0000 0000 000000
2015-02-02 07:07:56,0.15,2.72,0.00,11.64,17.13,19.64,5.07,30.11,1025.89,2068.98,2521.29,2640.62,2847.23,349.96,364.71,11.93,0000 0000 0000 0000 000000
2015-02-02 07:12:57,0.15,2.72,0.00,11.68,17.12,19.60,5.19,29.96,1025.96,2068.99,2519.85,2639.58,2846.02,350.28,365.05,11.96,0000 0000 0000 0000 000000
2015-02-02 07:17:58,0.16,2.72,0.00,11.70,17.09,19.62,5.03,29.88,1025.92,2068.98,2518.46,2638.57,2844.88,349.70,364.43,11.99,0000 0000 0000 0000 000000
2015-02-02 07:23:00,0.16,2.73,0.00,11.63,17.08,19.60,4.96,29.94,1025.82,2068.99,2516.95,2637.44,2843.70,349.35,364.01,12.02,0000 0000 0000 0000 000000
2015-02-02 07:28:01,0.16,2.73,0.00,11.62,17.07,19.59,5.04,30.01,1025.55,2068.99,2515.60,2636.45,2842.61,349.90,364.77,12.05,0000 0000 0000 0000 000000
2015-02-02 07:33:02,0.16,2.74,0.00,11.75,17.05,19.58,4.98,29.81,1025.63,2069.00,2514.13,2635.40,2841.46,349.81,364.38,12.08,0000 0000 0000 0000 000000
2015-02-02 07:38:03,0.17,2.74,0.00,11.69,17.03,19.60,5.08,30.08,1025.40,2069.01,2512.62,2634.24,2840.21,349.79,364.59,12.11,0000 0000 0000 0000 000000
2015-02-02 07:43:04,0.16,2.75,0.00,11.70,17.02,19.58,5.11,29.91,1025.67,2069.02,2511.15,2633.19,2839.01,350.50,365.34,12.14,0000 0000 0000 0000 000000
2015-02-02 07:48:06,0.17,2.76,0.00,11.68,17.00,19.60,5.12,29.90,1025.76,2069.03,2509.67,2632.16,2837.91,350.17,364.96,12.17,0000 0000 0000 0000 000000
2015-02-02 07:53:07,0.16,2.76,0.00,11.71,16.99,19.64,5.05,29.79,1025.77,2069.01,2508.26,2631.11,2836.78,349.66,364.50,12.20,0000 0000 0000 0000 000000
2015-02-02 07:58:09,0.19,2.76,0.00,11.71,16.98,19.77,5.04,29.94,1025.60,2069.06,2506.70,2629.94,2835.63,350.15,364.73,12.23,0000 0000 0000 0000 000000
2015-02-02 08:03:10,0.17,2.77,0.00,11.73,16.97,19.70,5.16,29.98,1025.42,2069.13,2505.26,2628.78,2834.47,350.92,365.35,12.26,0000 0000 0000 0000 000000
2015-02-02 08:08:11,0.23,2.78,0.00,11.70,16.97,19.77,5.04,29.69,1025.41,2069.40,2503.83,2627.74,2833.35,349.22,363.83,12.29,0000 0000 0000 0000 000000
2015-02-02 08:13:12,0.20,2.78,0.00,11.73,16.95,19.74,5.08,29.96,1025.29,2069.62,2502.38,2626.69,2832.15,350.55,365.18,12.31,0000 0000 0000 0000 000000
2015-02-02 08:18:14,0.20,2.79,0.00,11.74,16.94,19.78,5.15,29.80,1025.19,2069.74,2500.81,2625.54,2830.91,350.45,364.90,12.34,0000 0000 0000 0000 000000
2015-02-02 08:23:15,0.18,2.79,0.00,11.77,16.94,19.84,5.10,29.74,1025.31,2069.87,2499.19,2624.41,2829.62,350.53,364.84,12.37,0000 0000 0000 0000 000000
2015-02-02 08:28:16,0.26,2.80,0.00,11.83,16.93,19.85,4.99,29.72,1025.09,2069.96,2497.21,2622.84,2827.78,349.28,363.36,12.40,0000 0000 0000 0000 000000
2015-02-02 08:33:17,0.16,2.81,0.00,11.83,16.92,19.89,5.03,29.77,1024.96,2069.98,2496.17,2621.71,2826.44,350.11,364.28,12.43,0000 0000 0000 0000 000000
2015-02-02 08:38:19,0.19,2.81,0.00,11.82,16.92,19.89,5.04,29.99,1024.92,2069.99,2494.76,2620.49,2825.07,349.71,364.15,12.46,0000 0000 0000 0000 000000
2015-02-02 08:43:20,0.17,2.82,0.00,11.79,16.92,19.89,5.09,29.94,1024.97,2069.95,2493.24,2619.19,2823.62,350.56,364.99,12.49,0000 0000 0000 0000 000000
2015-02-02 08:48:21,0.17,2.82,0.00,11.76,16.92,19.91,5.05,29.68,1025.31,2069.96,2491.76,2618.08,2822.51,349.91,364.50,12.52,0000 0000 0000 0000 000000
2015-02-02 08:53:23,0.18,2.83,0.00,11.82,16.92,19.82,5.08,29.68,1025.33,2069.95,2490.17,2616.90,2821.16,349.84,364.23,12.55,0000 0000 0000 0000 000000
2015-02-02 08:58:24,0.20,2.83,0.00,11.82,16.91,19.90,5.02,29.76,1024.95,2069.95,2488.61,2615.74,2819.86,349.76,364.04,12.58,0000 0000 0000 0000 000000
2015-02-02 09:03:25,0.18,2.84,0.00,11.81,16.91,19.90,5.00,29.73,1024.92,2069.98,2487.09,2614.60,2818.67,349.82,364.10,12.61,0000 0000 0000 0000 000000
2015-02-02 09:08:27,0.18,2.84,0.00,11.91,16.91,19.93,5.04,29.61,1024.91,2069.97,2485.49,2613.47,2817.45,349.47,363.70,12.64,0000 0000 0000 0000 000000
2015-02-02 09:13:28,0.18,2.85,0.00,11.90,16.91,20.02,5.05,29.87,1024.63,2069.97,2483.78,2612.26,2816.18,350.10,364.30,12.67,0000 0000 0000 0000 000000
2015-02-02 09:18:29,0.20,2.86,0.00,11.87,16.91,20.00,5.04,29.43,1024.95,2069.98,2482.18,2610.94,2814.80,349.91,364.10,12.70,0000 0000 0000 0000 000000
2015-02-02 09:23:30,0.20,2.86,0.00,11.94,16.91,20.07,4.98,29.47,1025.29,2069.97,2480.51,2609.73,2813.54,349.33,363.53,12.72,0000 0000 0000 0000 000000
2015-02-02 09:28:32,0.19,2.87,0.00,12.06,16.92,20.12,5.11,29.62,1025.28,2069.96,2478.80,2608.54,2812.25,350.48,364.60,12.75,0000 0000 0000 0000 000000
2015-02-02 09:33:33,0.18,2.87,0.00,12.07,16.92,20.24,5.07,29.82,1024.99,2069.99,2477.28,2607.34,2810.84,350.37,364.57,12.78,0000 0000 0000 0000 000000
2015-02-02 09:38:34,0.20,2.88,0.00,12.10,16.92,20.29,5.09,29.99,1025.16,2069.98,2475.58,2606.00,2809.48,350.17,364.19,12.81,0000 0000 0000 0000 000000
2015-02-02 09:43:35,0.21,2.88,0.00,12.15,16.93,20.35,5.01,29.80,1024.95,2069.98,2473.79,2604.71,2808.02,349.74,363.56,12.84,0000 0000 0000 0000 000000
2015-02-02 09:48:36,0.20,2.89,0.00,12.22,16.94,20.40,5.03,29.82,1024.92,2069.98,2472.12,2603.47,2806.65,349.56,363.50,12.87,0000 0000 0000 0000 000000
2015-02-02 09:53:37,0.18,2.90,0.00,12.28,16.95,20.44,5.06,29.61,1024.81,2069.97,2470.33,2602.11,2805.23,350.57,364.36,12.90,0000 0000 0000 0000 000000
2015-02-02 09:58:38,0.23,2.90,0.00,12.30,16.97,20.48,5.03,29.49,1024.62,2069.97,2468.52,2600.76,2803.77,349.45,363.06,12.93,0000 0000 0000 0000 000000
2015-02-02 10:03:40,0.21,2.91,0.00,12.34,16.98,20.54,5.03,29.47,1024.55,2069.95,2466.67,2599.43,2802.35,349.59,363.14,12.96,0000 0000 0000 0000 000000
2015-02-02 10:08:41,0.20,2.92,0.00,12.39,16.99,20.58,5.05,29.77,1024.45,2069.92,2464.92,2598.04,2800.82,349.79,363.32,12.99,0000 0000 0000 0000 000000
2015-02-02 10:13:42,0.22,2.92,0.00,12.48,17.02,20.61,5.06,29.52,1024.43,2069.88,2463.12,2596.67,2799.36,349.75,363.02,13.02,0000 0000 0000 0000 000000
2015-02-02 10:18:44,0.13,2.93,0.00,12.51,17.04,20.64,4.97,29.66,1024.40,2069.50,2461.19,2595.25,2797.72,350.17,363.40,13.05,0000 0000 0000 0000 000000
2015-02-02 10:23:45,0.20,2.93,0.00,12.57,17.06,20.68,5.01,29.40,1024.08,2069.21,2459.26,2593.72,2796.13,349.70,362.71,13.08,0000 0000 0000 0000 000000
2015-02-02 10:28:46,0.22,2.94,0.00,12.60,17.09,20.72,5.08,29.45,1023.95,2069.14,2457.22,2592.23,2794.53,350.33,363.37,13.11,0000 0000 0000 0000 000000
2015-02-02 10:33:47,0.24,2.95,0.00,12.65,17.11,20.74,5.02,29.52,1023.78,2069.09,2455.24,2590.68,2792.89,349.57,362.48,13.13,0000 0000 0000 0000 000000
2015-02-02 10:38:49,0.24,2.95,0.00,12.64,17.14,20.80,5.01,29.50,1023.70,2069.03,2453.09,2589.10,2791.21,349.82,362.47,13.16,0000 0000 0000 0000 000000
2015-02-02 10:43:50,0.25,2.96,0.00,12.70,17.17,20.81,5.05,29.35,1023.52,2069.01,2450.98,2587.47,2789.41,350.06,362.66,13.19,0000 0000 0000 0000 000000
2015-02-02 10:48:51,0.25,2.97,0.00,12.75,17.20,20.89,5.00,29.39,1023.44,2069.00,2448.95,2585.86,2787.71,349.60,362.06,13.22,0000 0000 0000 0000 000000
2015-02-02 10:53:52,0.25,2.97,0.00,12.79,17.23,20.89,5.00,29.37,1023.46,2069.00,2446.84,2584.21,2785.90,350.19,362.76,13.25,0000 0000 0000 0000 000000
2015-02-02 10:58:53,0.25,2.98,0.00,12.78,17.26,20.96,5.00,29.34,1023.31,2068.99,2444.72,2582.56,2784.12,349.90,362.47,13.28,0000 0000 0000 0000 000000
2015-02-02 11:03:54,0.27,2.99,0.00,12.88,17.30,21.02,5.00,29.41,1022.99,2068.97,2442.58,2580.85,2782.28,350.02,362.41,13.31,0000 0000 0000 0000 000000
2015-02-02 11:08:56,0.25,3.00,0.00,12.89,17.33,21.04,4.98,29.47,1022.55,2068.96,2440.36,2579.18,2780.42,350.18,362.13,13.34,0000 0000 0000 0000 000000
2015-02-02 11:13:57,0.26,3.00,0.00,12.88,17.36,21.07,5.06,29.73,1022.34,2068.92,2438.24,2577.49,2778.57,349.98,361.94,13.37,0000 0000 0000 0000 000000
2015-02-02 11:18:58,0.18,3.01,0.00,12.92,17.40,21.09,5.00,29.68,1022.43,2068.38,2436.03,2575.70,2776.62,349.39,361.37,13.40,0000 0000 0000 0000 000000
2015-02-02 11:23:59,0.24,3.02,0.00,12.94,17.43,21.13,5.05,29.62,1022.49,2068.11,2433.79,2573.97,2774.72,349.94,361.93,13.43,0000 0000 0000 0000 000000
2015-02-02 11:29:01,0.26,3.02,0.00,12.94,17.47,21.15,5.16,29.46,1022.87,2068.03,2431.54,2572.21,2772.79,351.11,363.01,13.46,0000 0000 0000 0000 000000
2015-02-02 11:34:02,0.27,3.03,0.00,13.06,17.51,21.21,5.03,29.48,1022.96,2068.00,2429.30,2570.46,2770.94,350.29,362.42,13.49,0000 0000 0000 0000 000000
2015-02-02 11:39:04,0.28,3.04,0.00,13.11,17.54,21.24,5.11,29.61,1022.96,2068.00,2427.02,2568.70,2769.00,350.87,362.81,13.52,0000 0000 0000 0000 000000
2015-02-02 11:44:05,0.27,3.05,0.00,13.13,17.58,21.28,5.07,29.49,1022.96,2067.99,2424.77,2566.87,2767.07,350.17,362.09,13.54,0000 0000 0000 0000 000000
2015-02-02 11:49:06,0.26,3.06,0.00,13.10,17.61,21.30,4.97,29.32,1022.82,2067.97,2422.62,2565.25,2765.32,349.73,361.63,13.57,0000 0000 0000 0000 000000
2015-02-02 11:54:07,0.27,3.06,0.00,13.16,17.64,21.32,5.06,29.17,1022.57,2067.96,2420.33,2563.52,2763.47,350.30,361.76,13.60,0000 0000 0000 0000 000000
2015-02-02 11:59:09,0.27,3.07,0.00,13.15,17.68,21.37,5.00,29.37,1022.66,2067.94,2418.08,2561.80,2761.58,350.46,362.37,13.63,0000 0000 0000 0000 000000
2015-02-02 12:04:10,0.18,3.08,0.00,13.25,17.71,21.38,5.01,29.39,1022.70,2067.58,2415.91,2560.00,2759.64,350.05,361.70,13.66,0000 0000 0000 0000 000000
2015-02-02 12:09:11,0.22,3.09,0.00,13.33,17.75,21.43,4.98,29.26,1022.72,2067.17,2413.53,2558.43,2757.66,349.80,361.29,13.69,0000 0000 0000 0000 000000
2015-02-02 12:14:13,0.28,3.09,0.00,13.37,17.78,21.45,5.07,29.27,1022.72,2067.06,2411.13,2556.60,2755.68,350.54,362.07,13.72,0000 0000 0000 0000 000000
2015-02-02 12:19:14,0.30,3.10,0.00,13.43,17.82,21.47,5.00,29.25,1022.51,2067.01,2408.83,2554.72,2753.58,349.66,361.10,13.75,0000 0000 0000 0000 000000
2015-02-02 12:24:15,0.29,3.11,0.00,13.46,17.86,21.52,5.07,29.42,1022.49,2067.00,2406.50,2552.83,2751.61,350.30,361.65,13.78,0000 0000 0000 0000 000000
2015-02-02 12:29:16,0.29,3.12,0.00,13.54,17.90,21.57,5.01,29.44,1022.48,2066.99,2404.18,2551.01,2749.70,350.00,361.26,13.81,0000 0000 0000 0000 000000
2015-02-02 12:34:18,0.31,3.13,0.00,13.63,17.94,21.64,5.04,29.33,1022.48,2066.97,2401.66,2549.03,2747.61,350.91,361.81,13.84,0000 0000 0000 0000 000000
2015-02-02 12:39:19,0.29,3.14,0.00,13.66,17.98,21.70,5.00,29.49,1022.47,2066.88,2399.17,2547.11,2745.53,349.19,360.24,13.87,0000 0000 0000 0000 000000
2015-02-02 12:44:20,0.24,3.15,0.00,13.73,18.02,21.75,5.00,29.11,1022.38,2066.55,2396.61,2545.14,2743.46,350.46,361.43,13.90,0000 0000 0000 0000 000000
2015-02-02 12:49:21,0.25,3.15,0.00,13.78,18.06,21.83,5.00,29.07,1022.23,2066.08,2394.14,2543.18,2741.28,350.28,360.94,13.93,0000 0000 0000 0000 000000
2015-02-02 12:54:22,0.32,3.16,0.00,13.85,18.11,21.84,4.96,29.16,1022.06,2066.01,2391.61,2541.11,2739.12,350.08,360.88,13.95,0000 0000 0000 0000 000000
2015-02-02 12:59:23,0.32,3.17,0.00,13.88,18.15,21.93,5.02,29.39,1021.99,2066.00,2389.04,2539.14,2736.99,350.13,360.78,13.98,0000 0000 0000 0000 000000